User: anonymous
Location: Unspecified
(0.0000°N, 0.0000°E)
Time: 17:32:25
(UTC+00:00)
Language:

AGILE - Orbit

View from above orbital plane
View from above orbital plane
View from above satellite
View from above satellite

Ground track
Ground track

The orbit data is extracted from the following two-line orbital elements,

1 31135U 07013A   14205.26781333  .00002358  00000-0  60050-4 0   140
2 31135 002.4666 030.7468 0016054 171.3739 188.6644 15.20186581401654
Epoch (UTC): 24 July 2014 06:25:39
Eccentricity: 0.0016054
inclination: 2.4666°
perigee height: 494 km
apogee height: 516 km
right ascension of ascending node: 30.7468°
argument of perigee: 171.3739°
revolutions per day: 15.20186581
mean anomaly at epoch: 188.6644°
orbit number at epoch: 40165

The dashed part of the orbit path shows where the satellite is in the earth's shadow,  

DLR